Temperature
12 12 12 12 12 12 12 12 12 12 12 12 12 12 12 11 11 11 11 11 11 11 11 11 10 10 10 10 10 10 10 10 10 10 10 9 9 9 9 9 9 9 9
11 11 11 11 11 12 12 12 12 12 12 12 12 11 11 11 11 11 11 11 11 11 10 10 10 10 10 10 10 10 9 9 9 9 9 9 9 9 9 9 9 9 9
11 11 11 11 11 11 11 11 11 11 11 11 11 11 11 11 11 11 11 11 10 10 10 10 10 10 9 9 9 9 9 9 9 9 9 9 8 9 9 9 9 9 8
11 11 11 11 11 11 11 11 11 11 11 11 11 11 10 10 10 10 10 10 10 10 10 10 9 9 9 9 9 9 9 9 8 8 8 8 8 8 8 8 8 8 8
10 10 10 10 10 10 10 11 11 11 10 10 10 10 10 10 10 10 10 10 9 9 9 9 9 9 9 9 8 8 8 8 8 8 8 8 8 8 8 8 8 8 8
9 10 10 10 10 10 10 10 10 10 10 10 10 9 9 9 9 9 9 9 9 9 9 9 9 9 9 8 8 8 8 8 8 8 8 7 7 7 7 7 7 7 7
9 9 9 9 9 10 10 10 10 9 9 9 9 9 8 8 8 9 8 8 8 8 8 8 8 8 8 8 8 8 8 7 7 7 7 7 7 7 7 7 7 7 6
9 9 9 9 9 9 9 9 9 9 9 8 8 8 7 7 7 8 8 8 8 8 8 8 8 8 8 8 7 7 7 7 7 6 7 7 7 6 6 6 6 6 6
8 8 9 9 9 9 9 9 9 9 8 8 8 8 7 6 6 7 7 7 7 7 7 7 7 7 7 7 7 7 7 7 6 6 6 6 6 6 6 6 6 6 6
8 8 8 8 8 8 8 8 8 8 8 8 8 8 7 7 6 5 6 6 6 7 7 7 7 7 7 7 6 6 6 6 6 6 6 6 6 5 5 5 5 6 6
8 8 8 8 8 8 8 8 8 8 7 7 7 7 7 7 7 6 5 5 6 6 6 6 6 6 6 6 6 6 6 6 6 5 5 5 5 5 5 5 5 5 5
7 7 7 7 7 7 8 8 7 7 7 7 7 7 7 7 6 6 6 5 5 5 5 6 6 6 6 6 6 5 5 5 5 5 5 5 5 5 5 5 5 5 5
7 7 7 7 7 7 7 7 7 7 7 7 7 6 6 6 6 6 6 5 4 4 5 5 5 5 5 5 5 5 5 5 5 4 4 4 4 4 4 4 4 4 4
7 7 6 6 6 6 6 6 6 6 6 6 6 6 6 6 6 5 5 5 4 4 4 4 4 4 4 4 4 4 4 4 4 4 4 4 4 4 4 4 4 4 4
6 6 6 6 6 6 6 6 6 6 6 6 6 5 5 5 5 5 5 5 4 3 3 3 3 4 4 4 4 4 4 4 4 3 3 3 3 3 3 3 3 3 3
6 6 6 6 5 5 5 5 5 5 5 5 5 5 5 5 5 5 4 4 4 3 3 3 3 3 3 3 3 3 3 3 3 3 3 3 3 3 3 3 3 3 3
5 5 5 5 5 5 5 5 5 5 5 5 5 4 4 4 4 4 4 3 3 3 3 3 3 3 3 3 3 3 3 3 3 3 2 2 2 2 2 2 2 2 2
5 5 5 5 5 5 4 4 4 4 4 4 4 4 4 4 4 3 3 3 3 3 3 3 2 2 2 2 2 2 2 2 2 2 2 2 2 2 2 2 2 2 2
4 4 4 4 4 4 4 4 4 4 4 4 3 3 3 3 3 3 3 3 2 2 2 2 2 2 2 2 2 2 2 2 2 2 1 1 1 1 1 1 1 1 1
4 4 4 4 3 3 3 3 3 3 3 3 3 3 3 3 3 2 2 2 2 2 2 1 1 1 1 1 1 1 1 1 1 1 1 1 1 1 1 1 0 0 0
3 3 3 3 3 3 3 3 3 3 2 2 2 2 2 2 2 2 2 2 2 1 1 1 1 1 1 1 1 0 0 0 0 0 0 0 0 0 0 0 -0 -0 -0
3 3 3 3 2 2 2 2 2 2 2 2 2 2 2 2 2 2 1 1 1 1 1 1 1 0 0 0 -0 -0 -0 -0 -0 -0 -0 -0 -0 -0 -0 -0 -0 -1 -1
2 2 2 2 2 2 2 2 2 2 2 2 2 2 2 1 1 1 1 1 1 1 0 0 0 0 0 -0 -0 -1 -1 -1 -1 -1 -1 -1 -1 -1 -1 -1 -1 -1 -1
2 2 2 2 2 2 1 1 1 1 1 1 1 1 1 1 1 1 0 0 0 0 0 -0 -0 -0 -0 -1 -1 -1 -1 -1 -1 -1 -2 -1 -1 -1 -1 -1 -1 -1 -1
1 1 1 1 1 1 1 1 1 1 0 1 1 1 1 1 0 0 -0 -0 -0 -0 -0 -0 -1 -1 -1 -1 -1 -2 -2 -2 -2 -2 -2 -2 -2 -2 -1 -1 -1 -1 -1
1 1 1 1 0 0 0 0 0 0 0 0 0 0 0 -0 -0 -0 -1 -1 -1 -1 -1 -1 -1 -1 -1 -1 -2 -2 -2 -2 -2 -2 -2 -2 -2 -3 -3 -2 -2 -2 -2
Wind_Speed
2 3 3 3 3 4 4 3 2 4 4 5 6 6 5 5 6 6 5 6 6 5 5 6 6 6 6 6 5 5 4 4 5 5 5 4 4 4 4 5 5 5 6
3 3 3 3 3 4 4 3 3 3 3 4 4 5 6 6 6 6 6 6 5 5 5 5 5 5 5 5 5 5 4 4 4 3 4 5 4 4 4 4 5 5 5
4 3 3 3 3 4 4 4 4 4 3 3 3 4 5 5 5 5 5 5 5 5 4 4 4 4 4 4 3 4 4 4 4 4 4 4 5 5 4 4 5 5 6
5 4 2 2 3 4 4 3 3 3 3 3 2 2 3 3 4 5 5 5 5 5 4 3 3 3 3 3 3 3 4 4 4 4 5 5 4 5 5 5 5 6 6
5 4 3 3 4 3 2 3 3 3 3 3 3 2 2 2 2 4 4 5 5 4 4 3 3 2 2 3 3 3 4 4 4 4 5 5 5 5 6 6 6 6 6
5 4 3 3 4 3 2 3 4 3 3 3 3 3 2 1 1 2 3 4 4 3 3 3 3 2 2 2 3 3 4 4 4 5 5 5 6 6 6 6 6 6 7
4 4 3 3 3 3 4 4 4 4 3 3 3 2 3 2 1 1 2 2 2 3 3 2 2 2 2 3 3 4 4 5 5 5 6 6 6 7 7 7 6 7 7
4 4 4 4 4 4 4 4 4 3 2 2 3 3 1 2 2 1 1 1 1 2 2 1 2 1 1 2 3 4 5 6 6 6 6 7 7 8 8 8 8 7 7
4 4 3 4 4 4 5 5 5 5 4 1 2 4 3 2 1 2 1 0 1 0 0 1 1 1 1 2 3 4 6 7 7 7 8 8 8 8 8 9 9 9 8
3 3 3 4 4 3 4 5 4 4 5 4 2 1 2 3 2 1 1 1 1 1 2 1 2 2 3 3 4 5 6 7 8 8 8 8 9 9 9 10 10 10 10
2 3 3 3 3 3 4 4 4 4 3 3 3 2 1 1 2 2 2 2 2 2 2 2 3 3 4 4 5 5 6 7 8 9 9 9 9 10 10 11 11 11 11
1 1 2 3 3 3 3 4 4 5 4 3 2 2 3 2 2 2 3 3 3 3 3 3 3 3 4 5 6 7 7 8 9 10 10 10 10 11 11 11 11 12 11
1 2 2 2 2 3 3 3 4 4 4 4 3 2 2 2 2 2 2 2 3 3 2 2 3 4 5 5 6 8 8 9 10 10 11 11 11 11 11 12 12 12 12
2 2 2 3 2 3 3 3 3 3 3 3 3 2 2 2 2 2 2 2 2 3 3 3 2 4 5 6 7 8 8 10 10 11 11 11 11 11 12 12 12 12 13
2 2 2 2 2 2 3 3 2 2 3 3 3 2 2 2 2 2 2 3 3 4 5 4 2 3 4 6 7 7 8 10 11 11 11 11 11 11 11 11 12 12 13
2 3 2 2 2 1 2 2 2 2 3 2 2 2 2 2 1 1 2 2 3 4 5 4 3 3 4 6 8 8 9 11 11 11 11 11 12 12 12 12 12 12 13
3 3 3 3 3 2 2 2 2 3 3 2 2 2 3 2 2 2 2 2 2 3 5 5 3 3 3 4 6 7 8 8 9 11 11 12 12 12 12 12 12 12 12
3 3 3 3 3 2 2 2 2 2 3 3 2 3 3 2 2 2 2 2 3 3 4 6 5 3 4 4 4 5 6 7 8 10 11 12 12 12 12 12 12 12 13
3 3 3 3 3 2 2 2 2 2 2 2 3 3 3 3 3 2 2 3 3 3 3 4 5 4 3 3 3 4 5 5 7 9 10 11 12 12 12 12 12 12 12
4 3 3 3 3 3 3 3 2 2 2 2 2 2 3 3 4 3 3 3 3 2 2 3 4 4 4 3 2 4 4 3 5 7 9 10 11 12 12 13 13 13 13
3 3 2 2 2 2 3 3 3 3 2 2 2 2 3 4 4 4 3 3 2 2 3 3 4 4 4 4 3 3 5 4 5 4 4 6 7 7 9 12 13 13 13
2 2 2 2 2 2 3 4 3 3 3 3 2 3 3 3 3 3 4 5 5 4 4 4 5 5 6 5 4 4 4 4 5 2 3 6 4 6 7 9 12 14 14
2 2 2 2 2 3 4 3 3 2 2 3 3 3 3 2 2 2 4 5 6 7 7 5 6 6 6 5 4 5 5 5 7 4 3 6 4 6 7 10 14 14 14
2 2 2 2 2 2 3 3 3 2 2 3 3 4 4 3 3 3 3 3 4 5 6 5 5 6 6 5 5 6 6 5 5 4 3 5 5 5 6 8 13 14 14
1 2 2 2 2 3 3 3 3 2 2 3 3 3 3 4 5 5 3 3 5 5 6 7 8 8 9 8 6 3 3 4 6 5 3 3 4 5 5 5 8 11 11
2 2 2 2 3 3 4 4 3 2 2 2 2 3 4 5 6 5 3 4 5 5 4 4 4 6 5 6 7 4 4 4 4 5 3 2 3 3 4 4 4 7 8
Wind_Direction
167 162 159 155 161 152 140 130 117 118 112 107 111 112 110 105 99 95 94 105 112 112 108 103 94 86 77 72 66 60 57 55 49 43 33 27 26 19 16 15 15 12 6
162 169 166 157 164 161 150 144 135 126 118 113 109 110 113 107 103 99 93 92 101 111 110 104 95 83 74 68 57 49 41 38 35 26 23 22 12 3 0 358 1 359 354
160 163 166 168 175 163 147 133 119 112 111 108 108 105 110 109 106 101 98 93 90 96 104 106 95 82 68 56 43 36 34 27 21 17 4 356 1 353 341 340 343 345 342
161 152 167 180 171 156 140 142 140 118 115 118 115 106 105 110 108 103 99 99 96 89 87 89 85 72 59 47 30 25 21 9 6 3 359 353 339 345 336 326 328 327 329
167 158 167 169 161 148 148 157 144 134 130 123 119 104 97 111 120 112 106 107 110 106 98 85 78 69 48 30 14 6 358 350 347 347 345 343 342 333 333 327 315 315 319
170 158 162 161 154 152 159 151 145 135 137 134 113 82 56 60 100 121 127 120 116 116 113 97 81 66 40 11 354 346 342 341 334 333 334 330 329 327 321 316 322 324 324
169 157 168 160 158 164 167 157 147 140 128 128 101 72 26 21 43 129 121 123 115 112 106 111 100 78 20 345 331 328 325 325 323 322 323 323 318 317 318 314 312 318 322
173 168 164 171 167 162 156 161 149 144 142 140 137 128 82 1 353 23 62 135 142 108 107 130 143 121 20 346 323 319 316 313 312 312 313 314 314 313 313 315 313 307 310
169 163 159 165 165 169 172 175 168 152 166 193 162 149 155 201 255 307 305 118 121 100 167 176 199 231 269 295 298 303 308 306 304 305 306 307 309 310 311 310 308 306 301
163 161 156 162 164 168 172 174 170 160 163 178 195 159 156 159 173 234 299 303 284 250 243 227 223 255 267 277 285 297 302 301 299 300 302 303 304 307 308 305 309 307 303
152 158 162 162 167 172 171 168 168 167 170 179 183 175 138 123 165 184 236 264 284 263 251 236 221 235 260 273 280 285 293 294 295 297 298 298 301 304 305 307 305 307 306
165 155 165 160 167 167 165 170 172 170 174 172 177 182 173 181 194 186 221 249 264 269 263 249 229 227 245 262 277 286 288 287 289 292 293 294 299 301 303 304 305 305 305
179 203 177 168 175 172 168 161 165 167 171 172 175 192 192 212 198 195 200 242 269 281 270 260 240 231 247 262 277 284 285 286 287 288 289 292 295 297 299 301 301 304 304
188 180 164 155 158 164 163 157 164 168 167 168 176 188 198 216 204 194 201 213 270 286 272 260 272 235 250 265 273 282 284 287 288 287 288 290 293 294 295 298 300 302 303
163 146 143 136 131 143 156 155 168 176 171 173 176 187 208 220 203 203 194 195 208 263 271 256 254 253 262 269 274 280 281 282 285 285 286 289 291 292 293 294 298 300 301
150 145 137 138 145 151 145 159 174 181 170 182 180 184 210 227 201 202 200 218 221 235 264 254 247 255 273 284 284 282 279 283 283 284 285 288 289 290 290 290 293 296 297
148 149 152 151 157 161 157 158 176 175 172 187 201 198 215 209 212 222 216 225 241 234 257 277 265 255 254 269 287 283 280 280 281 281 284 286 287 289 290 289 290 293 295
152 150 147 148 151 149 145 159 172 178 175 188 208 206 219 217 217 226 224 235 246 239 238 266 283 273 260 257 267 273 285 282 280 282 284 285 287 289 290 287 288 289 291
149 148 153 158 162 162 161 168 172 187 191 200 211 213 217 209 228 235 241 246 255 259 241 247 273 281 279 273 275 278 280 284 288 288 286 287 288 290 291 287 287 289 289
153 157 167 171 173 174 175 179 181 192 198 217 230 229 221 215 221 225 237 237 242 253 243 246 268 280 280 278 264 274 288 281 286 297 289 287 289 290 289 287 287 288 289
154 159 161 168 177 185 192 187 188 194 196 217 244 251 241 237 239 242 250 240 231 244 251 253 263 276 280 280 269 265 278 288 285 278 285 286 289 289 287 285 283 283 283
150 153 170 182 199 215 212 208 205 195 200 210 235 263 265 256 248 263 269 265 256 249 250 253 260 262 268 268 271 274 279 288 285 269 272 283 277 273 278 277 279 282 284
154 164 184 191 211 228 223 217 224 210 207 222 232 244 260 259 273 249 268 279 275 272 264 255 251 253 256 255 256 267 267 268 270 270 278 281 275 272 277 278 281 283 285
170 182 193 207 217 237 236 233 232 224 222 231 234 235 234 238 242 251 252 266 273 273 270 263 245 250 252 249 242 252 261 273 277 274 251 272 280 277 286 284 282 283 284
182 199 205 207 217 245 249 241 241 210 231 244 246 244 238 240 254 266 260 262 276 280 285 277 274 274 273 271 268 269 272 279 285 279 238 247 274 289 288 281 286 290 290
195 199 211 211 214 234 246 249 252 216 233 252 259 246 248 255 262 266 249 244 264 276 281 293 294 291 287 277 272 257 242 261 276 275 244 235 268 295 297 284 287 295 289
Height
1520 1521 1522 1523 1524 1525 1526 1527 1529 1530 1531 1532 1534 1535 1536 1537 1538 1539 1539 1540 1540 1541 1541 1541 1541 1541 1541 1540 1539 1539 1538 1538 1537 1536 1536 1535 1535 1534 1533 1532 1531 1530 1529
1517 1518 1519 1521 1522 1523 1524 1525 1527 1528 1529 1531 1532 1533 1534 1535 1536 1537 1538 1538 1538 1539 1539 1539 1539 1539 1539 1539 1538 1537 1537 1536 1535 1535 1534 1534 1533 1532 1532 1531 1530 1529 1528
1515 1516 1517 1518 1519 1520 1522 1523 1524 1526 1527 1528 1530 1531 1532 1533 1534 1535 1536 1536 1537 1537 1537 1538 1538 1538 1537 1537 1536 1536 1535 1534 1534 1533 1532 1532 1531 1530 1530 1529 1528 1527 1526
1512 1513 1514 1515 1517 1518 1519 1520 1521 1523 1524 1526 1527 1528 1530 1531 1532 1533 1534 1534 1535 1535 1535 1536 1536 1536 1535 1535 1535 1534 1533 1533 1532 1531 1531 1530 1529 1528 1527 1526 1526 1525 1524
1509 1510 1512 1513 1514 1515 1516 1518 1519 1520 1522 1523 1525 1526 1528 1529 1530 1531 1531 1532 1532 1533 1533 1534 1534 1534 1533 1533 1532 1532 1531 1531 1530 1529 1528 1528 1527 1526 1525 1524 1523 1523 1522
1506 1507 1509 1510 1511 1512 1514 1515 1516 1518 1519 1521 1522 1524 1525 1527 1528 1528 1529 1529 1530 1530 1531 1531 1531 1531 1531 1531 1530 1529 1529 1528 1528 1527 1526 1525 1524 1524 1523 1522 1521 1520 1519
1503 1504 1506 1507 1508 1510 1511 1512 1513 1515 1517 1518 1520 1521 1523 1524 1525 1526 1526 1527 1527 1528 1528 1529 1529 1528 1528 1528 1528 1527 1526 1526 1525 1524 1523 1523 1522 1521 1520 1519 1518 1517 1516
1500 1501 1503 1504 1506 1507 1508 1509 1511 1512 1513 1515 1517 1518 1520 1523 1522 1523 1524 1524 1525 1525 1525 1526 1526 1526 1526 1525 1525 1524 1523 1523 1522 1521 1520 1520 1519 1518 1517 1516 1515 1514 1513
1497 1498 1500 1501 1503 1504 1505 1506 1508 1509 1510 1513 1514 1515 1517 1517 1519 1520 1520 1521 1522 1522 1523 1523 1523 1523 1522 1522 1521 1521 1520 1520 1519 1518 1517 1516 1516 1515 1514 1513 1512 1511 1510
1494 1495 1496 1498 1499 1501 1502 1504 1505 1507 1508 1510 1511 1513 1514 1514 1515 1515 1517 1517 1518 1519 1519 1519 1519 1519 1519 1519 1518 1517 1517 1516 1515 1515 1514 1513 1512 1511 1510 1509 1508 1507 1506
1491 1492 1493 1495 1496 1498 1500 1501 1503 1504 1506 1507 1508 1509 1510 1512 1512 1512 1511 1513 1514 1515 1515 1515 1515 1515 1515 1515 1514 1514 1513 1512 1511 1511 1510 1509 1508 1507 1506 1505 1504 1503 1502
1488 1489 1490 1491 1493 1495 1497 1498 1500 1501 1502 1504 1505 1506 1507 1508 1508 1508 1508 1508 1509 1510 1510 1511 1511 1511 1510 1510 1510 1509 1508 1508 1507 1506 1506 1505 1504 1503 1501 1500 1499 1499 1498
1484 1486 1487 1489 1490 1492 1494 1496 1497 1498 1499 1500 1501 1502 1504 1505 1506 1506 1506 1505 1505 1505 1505 1506 1506 1506 1506 1506 1505 1505 1504 1503 1502 1502 1501 1500 1499 1498 1497 1496 1495 1494 1493
1482 1483 1484 1485 1487 1489 1491 1492 1494 1495 1496 1496 1498 1499 1500 1502 1502 1503 1503 1502 1501 1501 1501 1501 1501 1501 1501 1501 1500 1500 1499 1499 1498 1497 1496 1495 1494 1493 1492 1491 1490 1489 1488
1480 1481 1482 1483 1485 1486 1488 1489 1490 1491 1492 1493 1494 1495 1497 1498 1498 1498 1499 1499 1500 1497 1495 1496 1496 1496 1496 1496 1496 1495 1494 1494 1493 1492 1491 1490 1489 1488 1487 1486 1485 1484 1483
1477 1478 1479 1481 1482 1484 1485 1486 1487 1488 1489 1489 1490 1492 1493 1493 1493 1494 1495 1495 1495 1494 1491 1490 1491 1491 1491 1491 1490 1490 1489 1489 1488 1487 1485 1484 1483 1482 1481 1480 1480 1479 1478
1475 1476 1477 1478 1480 1481 1482 1483 1484 1485 1485 1486 1487 1488 1488 1489 1489 1490 1490 1490 1491 1490 1488 1485 1486 1486 1486 1486 1485 1485 1484 1483 1482 1481 1480 1479 1478 1477 1476 1475 1474 1473 1472
1473 1474 1475 1475 1476 1478 1479 1480 1480 1481 1482 1483 1483 1484 1484 1484 1485 1485 1485 1486 1486 1486 1484 1481 1480 1481 1481 1481 1480 1479 1479 1478 1477 1476 1475 1474 1473 1472 1470 1469 1468 1468 1467
1471 1471 1472 1473 1474 1475 1476 1476 1477 1478 1479 1479 1480 1480 1480 1480 1480 1481 1481 1481 1481 1481 1480 1478 1476 1476 1476 1476 1475 1474 1473 1472 1471 1470 1469 1468 1467 1466 1465 1464 1463 1462 1461
1468 1469 1470 1470 1471 1472 1473 1474 1474 1475 1475 1476 1476 1476 1476 1476 1476 1477 1477 1477 1477 1476 1475 1474 1472 1471 1471 1470 1470 1468 1467 1466 1466 1465 1464 1462 1461 1460 1459 1458 1457 1456 1455
1466 1467 1467 1468 1469 1469 1470 1471 1471 1471 1472 1472 1472 1472 1472 1472 1473 1473 1473 1472 1472 1471 1470 1469 1468 1467 1466 1465 1464 1463 1462 1460 1459 1459 1458 1457 1456 1454 1453 1452 1451 1450 1449
1464 1464 1465 1465 1466 1467 1467 1468 1468 1468 1468 1468 1468 1468 1469 1469 1468 1469 1469 1468 1468 1467 1466 1465 1464 1463 1461 1461 1460 1459 1457 1455 1453 1454 1452 1450 1450 1448 1447 1446 1445 1444 1442
1461 1461 1462 1463 1463 1464 1464 1465 1465 1465 1465 1465 1465 1465 1465 1465 1465 1464 1464 1464 1463 1463 1463 1462 1460 1458 1457 1456 1455 1454 1453 1451 1449 1448 1447 1444 1443 1442 1441 1440 1439 1437 1436
1458 1459 1459 1460 1460 1461 1461 1462 1462 1462 1462 1462 1462 1462 1461 1461 1460 1460 1460 1459 1458 1458 1458 1457 1456 1454 1453 1452 1451 1450 1448 1446 1444 1443 1442 1439 1437 1436 1435 1433 1432 1431 1430
1455 1456 1456 1457 1457 1458 1458 1458 1459 1459 1458 1458 1458 1458 1458 1457 1456 1456 1456 1455 1454 1453 1452 1452 1451 1450 1448 1447 1447 1445 1444 1442 1439 1437 1437 1435 1432 1430 1428 1427 1426 1425 1423
1452 1453 1454 1454 1454 1454 1455 1455 1455 1455 1455 1454 1454 1454 1454 1453 1453 1452 1452 1451 1449 1448 1447 1446 1446 1445 1444 1443 1442 1441 1439 1437 1435 1432 1431 1431 1428 1426 1422 1420 1420 1419 1417